Vorticity
11 11 11 10 7 7 7 7 9 7 6 7 7 7 8 6 7 8 6 7 8 7 9 10 10 11 10 9 9 9 8 7 6 6 7 6 5 5 4 4 4 4 4 5 6 8 9 7 5 5 4 4 3 3 5 4 4 4 3 3 4 4 5 5 4 4 4 5 5 3 3 3 3 4 3 3 4 6 8 9 11 12 11 10 9
8 7 6 7 6 6 7 7 7 7 5 6 7 6 6 7 7 9 9 9 8 9 10 12 12 12 11 10 10 10 10 10 9 8 7 7 6 6 6 6 5 6 5 4 5 7 9 9 7 6 4 4 3 3 3 3 3 3 3 3 3 3 4 4 4 4 3 4 5 5 4 3 1 2 2 1 -0 -1 0 3 5 6 6 5 4
7 7 5 5 7 6 7 8 7 8 9 7 7 6 5 6 7 8 9 8 8 10 12 12 11 10 9 9 9 8 10 12 13 12 10 10 9 8 8 8 7 8 7 5 6 6 8 9 9 8 6 6 5 4 4 4 3 3 3 3 3 3 2 2 2 3 3 3 3 4 4 4 3 1 2 3 2 1 -1 -1 1 2 3 2 2
4 6 6 5 8 7 6 9 8 9 10 8 7 7 5 7 9 10 9 8 8 10 12 12 10 8 8 9 12 12 12 13 14 14 13 12 12 11 11 10 9 9 9 8 7 7 7 9 9 10 9 7 6 5 5 5 4 4 4 3 4 3 1 1 1 1 2 3 3 3 4 4 4 3 3 4 4 3 2 1 1 2 2 1 -0
5 6 6 6 8 8 7 8 9 9 9 8 7 6 7 9 10 11 9 7 7 7 8 9 9 10 10 11 14 14 13 13 13 14 13 12 12 13 13 13 12 11 11 10 10 9 9 9 9 11 12 9 7 6 5 6 6 5 4 4 3 3 2 2 2 2 2 2 2 4 5 5 5 5 5 4 4 3 3 2 3 2 3 3 1
8 7 7 8 8 8 9 8 8 9 8 8 7 6 8 9 9 10 8 6 6 6 6 7 8 12 13 13 13 13 14 13 12 11 13 13 13 14 16 18 18 17 16 15 16 16 15 13 13 13 14 12 8 5 5 5 6 7 6 6 4 4 4 3 2 2 1 1 1 2 3 4 5 4 4 3 3 2 1 1 2 2 2 4 3
8 9 9 9 8 7 7 5 5 6 5 5 6 7 8 9 8 8 7 6 6 6 6 7 9 11 13 13 12 12 12 12 11 11 12 13 14 14 13 15 17 18 18 18 18 20 21 20 20 18 17 14 10 7 5 4 5 7 7 7 6 6 6 5 4 4 2 2 1 1 1 2 3 3 2 2 2 2 1 1 1 1 2 2 3
8 10 9 8 7 5 4 4 3 3 3 3 5 7 7 6 6 6 6 6 6 7 7 9 10 11 11 11 11 11 10 9 10 10 10 11 10 9 9 9 11 13 15 16 16 17 18 19 21 20 17 15 12 10 8 5 5 6 7 7 8 8 8 7 6 6 5 4 3 2 2 2 2 1 1 1 0 0 1 1 1 1 1 1 2
8 11 11 9 9 7 3 3 2 2 2 3 4 6 5 5 5 4 5 7 7 7 8 9 11 11 10 10 9 9 9 8 8 8 7 7 5 5 6 6 7 8 10 12 13 14 15 16 18 20 19 17 15 13 12 8 6 6 6 6 7 8 8 9 9 9 8 7 5 2 2 4 3 1 1 1 1 0 1 1 1 2 1 1 2
10 12 14 12 10 10 7 5 4 2 2 1 1 4 5 5 6 4 5 7 8 8 7 9 12 11 9 9 8 8 9 7 7 6 5 6 6 7 7 5 6 7 7 7 7 7 8 10 11 14 16 17 17 16 17 16 13 11 9 8 9 8 7 7 8 8 8 9 8 5 5 6 4 1 2 2 1 1 1 1 1 2 3 2 2
8 8 10 9 8 11 10 9 7 5 4 3 3 5 6 6 7 5 5 7 8 7 8 9 11 10 9 9 7 6 7 6 5 5 5 6 8 9 8 6 6 7 7 6 4 3 4 4 5 6 6 8 10 11 13 14 16 16 15 13 13 12 12 11 10 9 8 9 9 8 7 6 3 2 4 3 2 3 3 2 2 3 4 3 2
7 6 7 8 8 10 12 11 11 9 8 8 8 9 9 7 7 6 5 8 8 7 7 9 10 10 8 8 7 5 4 3 3 4 4 4 6 7 7 6 6 7 6 4 3 4 4 4 4 3 3 3 4 3 3 5 8 10 10 10 11 11 12 13 12 13 13 13 13 13 12 9 5 5 5 3 4 6 6 5 4 2 3 3 3
5 5 6 6 6 8 13 14 14 14 14 14 13 13 12 9 8 7 6 7 8 7 9 10 11 10 8 6 7 6 5 3 2 3 3 4 6 6 4 4 5 5 4 4 4 5 6 6 6 4 4 4 3 2 2 3 3 3 4 5 6 6 6 6 8 10 10 10 10 12 13 12 10 9 8 6 7 8 7 5 4 4 4 3 3
3 3 3 4 3 4 8 12 15 15 15 17 18 18 16 11 8 7 7 7 8 9 11 11 9 11 10 7 5 4 4 2 1 2 4 6 8 6 2 4 6 5 4 5 4 4 4 5 5 4 3 3 3 2 2 2 2 1 2 2 4 5 4 3 4 5 4 5 5 5 6 5 6 7 5 4 5 5 4 5 4 3 3 2 2
3 3 1 2 3 3 4 8 16 17 14 15 19 18 16 13 9 9 8 7 9 10 11 10 9 9 11 12 11 8 5 3 2 3 6 8 7 4 3 5 5 4 4 4 3 3 3 3 3 2 2 3 4 4 3 3 3 2 2 2 2 2 2 3 5 4 2 3 3 4 4 3 4 6 4 3 5 5 5 7 9 10 7 6 6
4 3 0 -0 0 2 3 6 15 22 16 14 17 16 14 12 10 9 8 8 10 11 10 11 11 8 8 10 11 12 10 8 7 6 7 7 6 4 4 4 3 3 2 1 2 3 3 4 3 1 1 3 5 6 6 6 7 7 7 6 4 3 2 3 5 5 4 3 3 3 3 2 3 4 3 1 2 3 3 4 9 12 9 7 8
4 1 0 2 0 1 3 3 11 23 18 11 13 14 11 9 7 7 8 10 10 10 9 10 11 10 9 7 7 8 9 9 9 8 6 6 6 5 3 2 1 1 0 1 2 3 3 3 2 1 2 3 3 5 6 6 8 10 10 10 9 9 9 8 5 4 5 5 5 5 4 5 6 3 2 2 1 2 4 4 7 8 4 7 10
7 4 1 3 2 1 2 1 9 25 22 11 10 9 7 8 9 9 11 11 9 10 11 12 12 13 11 9 8 7 6 6 6 5 4 4 3 2 0 -0 0 1 3 5 5 4 4 3 2 2 4 4 3 2 1 3 5 6 8 8 7 8 13 14 10 7 5 4 7 9 7 7 8 4 3 5 4 5 6 6 8 9 6 9 10
10 9 4 4 3 1 1 1 8 22 24 15 14 15 12 12 13 11 10 8 7 8 9 10 11 11 10 8 6 5 4 5 6 5 5 4 4 3 2 3 5 6 6 5 3 3 4 4 4 5 5 5 3 -1 -2 2 3 3 4 5 3 3 5 7 5 7 10 9 9 11 9 8 10 9 8 8 6 8 7 1 5 12 11 6 2
12 11 6 5 5 1 0 1 4 13 15 10 10 13 13 12 11 9 8 7 6 6 7 8 8 8 8 7 5 6 8 8 7 5 4 3 3 4 4 5 6 6 4 2 1 2 4 6 7 7 4 0 -1 -1 1 3 1 0 2 5 6 4 3 1 -1 1 8 9 7 9 10 9 10 11 12 10 6 5 3 -2 1 9 7 1 0
14 14 9 6 6 3 1 1 4 9 9 5 5 5 5 6 6 6 7 7 6 6 6 6 6 6 7 6 5 6 7 5 3 1 1 2 3 3 4 3 3 4 3 3 2 3 6 7 6 6 3 0 1 2 4 3 -0 -1 2 5 7 4 2 4 2 -1 5 9 7 7 9 8 9 9 11 11 7 3 3 2 2 5 2 -2 -1
16 16 14 12 10 6 1 1 5 8 6 5 6 4 3 3 2 3 5 5 6 6 5 5 6 6 7 6 5 5 4 3 3 2 2 4 3 2 2 1 2 3 4 5 5 5 7 5 2 2 3 2 3 3 2 2 -0 -1 2 7 9 7 4 5 3 1 3 2 -5 -6 1 6 7 6 7 9 8 5 3 2 2 3 3 1 -1
17 16 15 14 14 11 6 5 9 9 7 7 6 4 5 5 2 2 3 3 5 6 5 6 6 5 5 5 4 4 4 3 2 1 1 1 1 1 2 3 4 5 5 7 8 7 8 6 3 4 5 6 6 5 3 2 -1 -2 1 5 10 11 7 4 5 6 8 7 1 -1 3 6 5 5 7 8 7 6 4 3 3 2 3 3 -0
15 15 13 12 14 14 11 10 11 10 10 10 6 3 3 5 5 5 4 4 5 4 2 3 3 2 2 3 3 4 3 1 0 -0 0 1 1 2 3 4 5 4 5 8 9 9 10 10 8 7 7 9 9 6 4 3 2 -1 -1 4 14 15 9 9 15 15 14 15 12 9 9 8 6 6 6 5 4 5 3 3 4 3 3 4 1
9 11 11 10 11 12 11 11 11 10 12 12 9 4 2 3 5 5 5 6 6 4 1 1 1 0 1 2 3 3 2 1 1 1 2 3 3 3 3 3 3 4 5 6 6 7 7 5 4 5 5 7 8 7 5 4 2 -0 -1 7 18 16 7 8 11 8 8 10 8 9 11 9 8 9 8 6 4 3 4 7 8 4 2 2 2
4 6 8 9 9 9 9 10 10 11 12 12 11 8 5 4 4 4 5 6 5 4 3 2 2 2 2 1 1 1 0 -0 1 3 4 4 3 3 2 2 2 3 5 5 6 6 3 2 3 3 3 7 10 10 10 8 4 3 3 7 13 11 7 7 3 0 3 5 5 7 6 3 4 4 6 8 6 5 7 7 7 7 6 4 4
4 5 5 5 7 7 7 8 8 10 10 10 12 11 9 7 6 4 4 4 4 4 5 4 4 3 3 2 1 1 2 2 2 3 3 2 2 2 2 2 3 4 5 5 5 4 3 2 2 2 5 10 10 10 13 11 7 6 5 4 5 5 7 9 8 6 6 4 5 6 3 1 1 2 14 26 26 25 23 11 3 5 5 5 6
6 7 6 5 5 5 6 6 7 8 9 9 10 10 9 9 8 6 5 5 5 4 4 4 4 4 3 3 3 3 3 3 2 2 2 2 2 3 3 3 4 4 5 5 4 4 4 3 4 5 7 8 7 9 10 8 6 5 4 4 5 6 7 9 10 11 10 9 9 6 2 3 6 13 28 32 22 23 33 31 23 14 2 1 3
7 7 7 7 5 4 5 5 4 6 8 8 8 8 8 8 7 7 7 7 6 6 6 5 4 4 4 3 3 3 2 2 2 2 2 3 3 3 4 5 5 5 5 4 3 4 4 4 6 7 6 5 6 8 7 5 4 4 4 6 9 12 13 12 11 11 13 13 12 10 9 12 14 18 23 21 19 26 32 34 39 35 24 19 10
7 7 7 7 7 7 6 5 5 5 6 7 7 6 7 6 6 8 9 7 7 8 7 6 6 5 5 3 2 3 3 2 3 3 3 4 4 4 5 6 5 5 4 4 5 6 6 7 7 7 6 5 6 6 6 5 4 4 7 12 15 15 14 12 11 13 15 16 17 17 17 19 19 17 15 16 22 24 16 14 25 31 29 31 26
6 7 8 7 7 8 7 7 7 8 7 7 6 5 6 5 5 6 6 6 7 7 6 6 6 5 5 4 3 4 4 3 4 4 4 4 4 4 5 5 4 5 4 5 8 8 7 7 8 7 5 4 5 6 6 4 5 9 15 19 19 16 14 12 12 13 15 15 14 13 15 17 16 14 14 14 14 13 9 9 13 15 16 21 25
5 6 7 6 6 6 6 6 6 7 6 6 5 6 6 5 5 6 6 6 7 7 6 6 5 5 5 5 4 4 4 4 4 4 4 4 4 4 5 5 5 7 7 8 10 8 6 7 7 5 3 4 5 7 6 7 13 19 22 22 18 12 11 11 11 13 15 16 15 12 12 11 8 9 12 13 13 14 10 3 -0 5 17 20 14
5 5 5 5 5 5 5 5 6 5 4 4 5 5 5 4 5 6 6 6 6 7 7 7 6 5 6 5 4 5 4 4 4 4 3 4 5 5 5 6 6 7 8 7 6 4 4 6 5 2 3 5 5 6 9 15 20 20 17 15 10 6 7 9 10 13 17 18 17 14 12 11 13 15 14 12 14 14 10 8 9 13 21 23 15
7 6 5 5 6 7 7 7 6 5 5 6 6 5 5 5 5 4 4 5 6 7 8 7 6 5 6 5 5 5 4 4 4 4 4 5 6 6 7 7 7 6 5 4 3 3 5 4 2 3 4 3 5 12 17 19 18 15 12 9 5 4 7 9 11 14 17 17 16 13 12 13 14 14 14 19 24 23 16 11 13 18 24 22 14
7 7 7 7 7 7 7 7 6 6 7 7 6 6 6 6 6 5 5 5 6 7 7 6 5 5 6 6 5 4 5 5 5 5 6 6 5 6 7 7 6 5 4 3 3 4 3 2 2 3 3 5 13 20 20 15 12 10 9 6 5 6 8 9 14 18 18 16 13 11 14 15 13 17 25 27 30 43 49 35 24 34 45 30 9
8 8 8 8 7 6 7 6 6 7 6 6 6 6 6 6 6 6 7 6 5 6 5 5 6 6 5 6 5 5 6 6 5 6 6 5 5 7 6 5 4 4 3 3 3 3 2 1 2 2 4 13 22 20 13 8 7 7 7 6 7 10 10 11 18 21 17 14 11 10 13 11 10 23 30 17 19 50 64 42 20 22 29 24 18
8 8 8 8 8 8 8 7 7 7 6 6 7 6 6 7 6 6 7 6 5 5 5 5 6 6 6 7 7 6 6 6 5 4 4 3 4 5 3 3 4 4 4 4 3 3 3 3 3 5 11 22 23 13 6 6 6 6 9 10 11 12 11 13 19 19 15 14 12 10 13 16 29 45 33 2 11 53 58 30 23 33 31 27 28
7 7 8 8 8 8 9 8 8 8 8 8 8 8 7 8 7 6 7 7 6 6 6 6 7 7 7 7 6 6 7 6 5 6 5 5 5 4 4 5 5 3 3 3 2 4 5 4 5 13 21 23 15 5 4 7 6 8 13 13 11 12 14 19 22 17 12 15 13 9 12 18 31 52 44 13 24 68 67 24 11 32 43 38 26
6 5 6 7 7 8 9 8 7 7 7 6 7 7 7 7 7 6 6 6 6 7 6 6 7 7 7 7 6 5 5 4 4 6 6 5 5 5 5 4 4 3 4 4 4 6 8 8 14 23 25 17 7 3 5 5 4 9 12 9 8 10 13 17 18 11 11 17 15 12 16 9 -2 20 48 39 21 31 37 12 -17 -15 5 12 6
5 5 6 7 7 7 7 7 6 7 7 7 6 6 6 6 6 6 6 5 5 6 6 6 7 6 5 5 4 4 4 4 4 4 4 4 5 5 4 5 5 5 5 7 9 11 14 18 24 25 18 8 4 4 4 3 4 9 9 7 8 12 11 11 11 8 11 18 15 10 14 13 3 15 47 54 24 6 32 65 56 15 -6 -1 6
5 5 6 7 7 7 7 8 8 8 8 8 7 6 6 6 6 6 6 5 4 4 5 5 7 7 7 6 5 3 3 3 2 3 4 5 5 5 5 5 5 5 8 11 14 16 20 24 24 17 9 5 4 5 5 5 6 8 8 9 12 14 12 10 13 14 13 15 16 9 5 11 20 23 33 57 59 23 8 50 82 50 9 9 19
8 8 8 8 8 8 7 7 8 8 7 8 8 7 7 7 7 7 7 6 5 5 4 3 3 4 5 5 5 4 4 4 4 4 4 5 5 5 5 6 7 10 15 16 16 18 22 22 17 10 6 4 5 5 6 8 9 9 9 10 11 12 11 10 13 17 17 14 15 17 15 20 33 35 36 66 93 57 2 14 61 61 24 7 5
8 8 8 8 7 7 7 7 7 7 7 7 7 5 5 6 6 5 5 6 5 5 5 4 3 3 3 3 3 3 3 4 5 5 4 4 5 7 8 10 14 18 20 18 16 20 21 16 10 8 7 4 4 6 9 11 13 11 9 10 10 9 10 12 12 12 16 19 21 29 34 34 39 48 54 64 75 61 28 14 22 19 7 4 11
10 8 8 8 7 7 7 7 6 7 7 7 6 5 5 5 5 4 4 5 6 6 7 7 6 4 4 3 3 3 5 5 5 6 6 7 8 10 11 14 17 19 19 19 20 20 16 10 7 7 6 5 7 11 12 13 12 10 8 10 11 7 6 13 15 14 20 30 32 34 36 32 30 46 61 48 16 -6 -12 -10 -2 11 23 29 30
14 11 9 9 8 7 8 8 7 7 8 7 7 7 6 6 5 5 4 4 4 4 5 5 4 3 4 4 6 8 9 8 7 8 9 10 10 11 11 14 17 19 19 20 20 16 9 6 6 7 9 11 13 13 13 12 10 9 9 9 9 9 8 12 18 23 29 33 28 22 23 26 26 34 43 28 -12 -39 -32 -5 21 36 35 24 17
16 16 14 12 10 8 7 7 6 6 7 7 6 7 6 6 6 6 5 4 4 3 4 5 6 6 7 9 10 9 8 8 9 11 11 10 8 8 11 18 22 22 19 17 14 9 6 6 8 10 14 17 15 12 13 13 11 11 13 11 9 12 13 14 20 27 26 21 17 14 14 20 25 28 32 32 21 12 17 27 29 23 16 12 13
12 14 14 14 13 11 9 8 8 7 7 7 7 7 7 7 7 7 7 7 6 7 7 8 8 9 10 10 11 10 10 11 12 11 10 9 7 8 15 22 22 18 14 13 12 9 8 8 10 12 15 17 17 16 16 16 14 13 14 12 11 12 13 16 25 28 16 3 5 12 15 16 17 16 17 22 23 20 18 18 15 13 15 17 15
14 12 13 14 14 13 11 11 10 9 8 9 9 8 8 8 7 7 8 8 8 9 9 10 10 12 12 12 13 15 16 16 15 13 12 11 10 12 17 20 17 13 14 15 14 12 10 9 12 15 16 17 20 20 18 16 14 12 10 12 15 16 15 19 26 25 11 -4 -7 -2 6 16 22 18 11 11 12 11 9 10 11 14 16 15 13
13 12 12 12 13 14 14 14 14 13 13 13 11 11 11 11 11 11 11 12 13 14 14 14 14 14 14 15 17 19 18 16 15 14 13 14 14 14 15 15 13 11 12 14 12 11 11 12 15 17 16 15 16 18 16 14 13 11 10 11 12 14 17 24 26 20 9 0 -5 -9 -6 6 18 20 15 12 11 10 9 9 9 9 11 12 11
7 8 9 9 9 11 12 12 13 13 13 13 13 13 14 15 16 18 18 19 20 19 17 15 13 12 13 14 14 13 13 11 9 7 8 12 16 14 11 11 9 3 2 6 10 11 12 13 14 15 15 14 13 13 14 13 12 12 12 11 11 13 17 22 21 13 5 -1 -3 -4 -1 5 10 14 17 16 12 7 7 9 10 10 11 11 10
5 5 5 5 5 5 6 6 8 9 10 11 12 13 14 16 18 20 20 18 17 15 12 10 8 8 10 10 9 8 8 9 9 9 10 14 17 14 10 9 7 -0 -7 -6 1 7 12 15 14 13 14 13 11 10 11 12 13 14 15 16 17 17 17 16 14 10 4 -3 -5 -1 5 6 6 9 13 15 11 7 7 11 14 13 11 10 10
Height
5908 5911 5914 5916 5919 5922 5925 5927 5929 5931 5932 5934 5935 5937 5938 5940 5941 5942 5943 5944 5945 5945 5946 5946 5946 5946 5946 5946 5946 5946 5946 5946 5946 5947 5947 5948 5948 5948 5948 5948 5948 5948 5948 5947 5947 5947 5946 5946 5946 5945 5945 5945 5945 5945 5945 5945 5944 5944 5943 5943 5942 5942 5941 5941 5940 5940 5940 5939 5937 5936 5935 5934 5933 5932 5930 5930 5929 5928 5927 5926 5924 5923 5921 5919 5918
5906 5909 5912 5915 5918 5920 5923 5925 5927 5929 5931 5932 5934 5935 5937 5938 5939 5941 5942 5942 5943 5944 5944 5945 5945 5945 5945 5944 5944 5944 5944 5944 5944 5945 5945 5946 5947 5947 5947 5947 5947 5947 5947 5946 5946 5945 5945 5944 5944 5944 5944 5944 5944 5944 5944 5943 5943 5942 5942 5941 5940 5940 5940 5939 5938 5938 5937 5937 5936 5935 5934 5933 5932 5931 5929 5928 5927 5927 5926 5924 5923 5921 5920 5918 5916
5904 5907 5910 5913 5916 5919 5921 5924 5926 5928 5929 5931 5932 5934 5935 5936 5938 5939 5940 5941 5941 5942 5942 5943 5943 5943 5943 5943 5943 5943 5943 5943 5943 5943 5943 5944 5945 5945 5946 5946 5946 5946 5945 5945 5945 5945 5944 5943 5943 5943 5943 5943 5943 5943 5942 5942 5941 5941 5940 5940 5939 5938 5938 5938 5937 5936 5935 5935 5934 5934 5933 5932 5931 5930 5929 5928 5926 5925 5924 5923 5921 5920 5918 5916 5914
5903 5906 5909 5912 5914 5917 5920 5922 5924 5926 5928 5929 5931 5932 5934 5935 5936 5937 5938 5939 5939 5940 5941 5941 5941 5941 5941 5941 5941 5941 5941 5941 5941 5941 5942 5942 5943 5943 5944 5944 5944 5944 5944 5944 5943 5943 5943 5943 5942 5942 5942 5942 5942 5942 5942 5941 5941 5940 5939 5938 5938 5937 5936 5936 5935 5935 5934 5933 5932 5932 5931 5930 5929 5928 5927 5926 5925 5923 5922 5920 5919 5918 5916 5914 5913
5902 5904 5907 5910 5913 5916 5918 5920 5922 5924 5926 5928 5929 5931 5932 5933 5934 5935 5936 5937 5937 5938 5939 5939 5939 5940 5939 5939 5940 5940 5940 5939 5939 5940 5940 5940 5940 5941 5942 5942 5942 5942 5942 5942 5942 5942 5942 5941 5941 5941 5941 5941 5941 5940 5940 5940 5940 5939 5938 5937 5937 5936 5935 5934 5933 5932 5932 5931 5930 5929 5928 5928 5927 5926 5925 5924 5923 5922 5919 5917 5916 5915 5914 5913 5911
5901 5903 5906 5909 5911 5914 5916 5919 5921 5923 5924 5926 5928 5929 5931 5932 5933 5933 5934 5935 5936 5936 5937 5937 5938 5938 5938 5938 5938 5938 5938 5938 5938 5938 5938 5938 5938 5939 5939 5940 5940 5940 5940 5940 5940 5940 5940 5940 5940 5939 5940 5940 5940 5939 5939 5938 5938 5938 5937 5936 5935 5935 5934 5933 5932 5931 5930 5929 5928 5927 5926 5925 5924 5923 5922 5921 5920 5919 5918 5916 5914 5913 5911 5910 5908
5901 5903 5905 5907 5910 5912 5915 5917 5919 5921 5923 5924 5926 5928 5929 5930 5931 5932 5933 5933 5934 5934 5935 5935 5935 5935 5936 5936 5936 5936 5936 5936 5936 5936 5937 5937 5937 5937 5938 5938 5939 5939 5939 5939 5939 5939 5939 5939 5938 5938 5938 5938 5938 5938 5937 5936 5936 5936 5936 5935 5934 5933 5932 5931 5931 5930 5929 5927 5926 5925 5924 5923 5921 5920 5919 5918 5916 5916 5915 5914 5912 5910 5909 5907 5905
5900 5901 5904 5906 5908 5911 5913 5915 5917 5919 5921 5923 5924 5926 5927 5928 5929 5930 5931 5932 5932 5932 5933 5933 5933 5933 5934 5934 5934 5934 5935 5935 5935 5935 5936 5936 5936 5936 5936 5937 5937 5938 5938 5938 5937 5937 5937 5937 5937 5937 5937 5936 5936 5936 5936 5935 5934 5934 5933 5933 5932 5931 5930 5929 5928 5928 5927 5926 5924 5923 5922 5921 5919 5917 5916 5915 5914 5912 5912 5911 5909 5908 5906 5904 5902
5898 5900 5902 5905 5907 5909 5911 5913 5915 5917 5919 5921 5922 5923 5925 5926 5927 5928 5929 5930 5930 5930 5931 5931 5931 5931 5931 5932 5932 5933 5933 5934 5934 5934 5935 5935 5935 5936 5936 5936 5936 5937 5937 5937 5937 5936 5936 5936 5936 5936 5935 5935 5934 5934 5934 5933 5933 5932 5931 5931 5930 5930 5929 5927 5926 5925 5924 5924 5922 5920 5919 5918 5917 5915 5913 5912 5911 5909 5908 5907 5906 5904 5903 5901 5898
5897 5899 5901 5903 5905 5907 5909 5911 5913 5915 5917 5918 5920 5921 5922 5923 5925 5926 5926 5927 5928 5928 5928 5929 5929 5929 5929 5930 5931 5931 5932 5933 5933 5933 5934 5934 5935 5935 5935 5935 5935 5935 5935 5936 5936 5936 5935 5935 5935 5934 5934 5934 5933 5932 5932 5932 5931 5930 5929 5928 5928 5927 5926 5925 5924 5923 5922 5921 5920 5918 5917 5916 5914 5912 5911 5909 5908 5906 5904 5903 5902 5900 5899 5897 5895
5896 5898 5900 5901 5903 5905 5907 5909 5911 5912 5914 5916 5917 5918 5919 5921 5922 5923 5924 5924 5925 5926 5926 5926 5927 5927 5928 5928 5929 5930 5931 5931 5932 5932 5932 5933 5933 5934 5934 5934 5934 5934 5934 5934 5934 5934 5934 5934 5934 5933 5933 5933 5932 5931 5931 5930 5929 5928 5927 5926 5925 5924 5923 5921 5920 5920 5919 5918 5917 5916 5914 5913 5911 5908 5907 5906 5904 5903 5902 5899 5897 5896 5895 5894 5892
5895 5897 5899 5900 5901 5903 5904 5906 5908 5909 5911 5913 5914 5915 5916 5918 5920 5921 5922 5922 5922 5923 5924 5924 5924 5925 5926 5927 5928 5928 5929 5929 5930 5930 5930 5931 5931 5932 5933 5933 5933 5933 5933 5933 5933 5932 5932 5932 5932 5932 5931 5931 5930 5930 5929 5928 5927 5926 5925 5924 5923 5921 5920 5918 5917 5917 5916 5915 5914 5913 5912 5910 5908 5906 5904 5902 5900 5899 5898 5896 5894 5892 5891 5890 5889
5894 5896 5898 5899 5900 5901 5902 5903 5905 5907 5908 5909 5911 5912 5913 5915 5917 5918 5919 5919 5920 5920 5921 5922 5922 5923 5924 5925 5926 5926 5927 5927 5928 5928 5929 5929 5929 5930 5931 5931 5931 5931 5931 5931 5931 5931 5930 5930 5930 5930 5929 5929 5928 5927 5926 5925 5924 5923 5922 5921 5920 5919 5917 5915 5915 5914 5912 5911 5910 5910 5909 5907 5905 5903 5901 5898 5897 5896 5894 5893 5890 5889 5888 5886 5884
5893 5894 5896 5897 5899 5900 5900 5901 5902 5904 5905 5906 5907 5909 5910 5912 5913 5914 5915 5917 5918 5918 5918 5919 5920 5921 5922 5923 5923 5924 5925 5926 5926 5926 5927 5927 5927 5927 5928 5928 5929 5929 5929 5930 5929 5929 5929 5928 5928 5927 5926 5926 5925 5924 5923 5922 5921 5920 5919 5918 5917 5915 5913 5912 5911 5910 5909 5908 5907 5906 5905 5903 5902 5900 5898 5895 5894 5892 5891 5889 5887 5885 5884 5882 5881
5890 5892 5894 5895 5896 5898 5899 5899 5900 5901 5902 5903 5904 5906 5907 5908 5910 5911 5912 5914 5915 5916 5916 5917 5918 5919 5920 5921 5921 5922 5923 5924 5924 5925 5925 5925 5924 5925 5925 5925 5926 5926 5927 5927 5927 5927 5926 5925 5925 5925 5924 5923 5922 5921 5920 5919 5917 5916 5915 5914 5913 5911 5910 5909 5907 5906 5905 5904 5903 5902 5901 5899 5898 5897 5895 5892 5890 5889 5887 5886 5884 5882 5880 5878 5877
5888 5890 5891 5893 5894 5895 5896 5897 5898 5898 5899 5900 5902 5903 5904 5906 5907 5908 5909 5911 5912 5913 5914 5915 5915 5916 5917 5918 5919 5921 5922 5922 5922 5923 5923 5923 5922 5922 5922 5922 5923 5923 5924 5924 5924 5924 5923 5922 5922 5921 5921 5920 5919 5917 5916 5914 5913 5912 5911 5910 5908 5907 5907 5906 5903 5901 5900 5899 5897 5897 5896 5895 5893 5892 5890 5888 5886 5884 5882 5882 5881 5878 5875 5873 5872
5886 5888 5889 5891 5892 5893 5894 5895 5896 5896 5897 5898 5899 5900 5902 5903 5904 5905 5906 5908 5909 5910 5911 5912 5913 5914 5915 5916 5917 5918 5919 5920 5920 5921 5921 5921 5920 5920 5920 5920 5920 5920 5920 5920 5920 5920 5919 5919 5918 5917 5917 5916 5915 5913 5912 5910 5909 5908 5906 5905 5903 5903 5903 5902 5899 5897 5895 5894 5892 5891 5890 5889 5888 5887 5885 5883 5882 5880 5877 5877 5876 5873 5871 5869 5867
5883 5885 5887 5888 5889 5891 5891 5892 5893 5894 5895 5896 5897 5898 5899 5900 5901 5902 5904 5905 5906 5907 5908 5909 5910 5911 5912 5913 5915 5916 5917 5917 5918 5918 5918 5918 5918 5918 5917 5917 5918 5918 5917 5917 5916 5916 5915 5915 5914 5913 5912 5911 5910 5909 5907 5905 5904 5903 5902 5900 5898 5899 5899 5897 5894 5892 5891 5889 5887 5886 5885 5884 5883 5882 5880 5879 5877 5875 5873 5872 5870 5868 5866 5864 5862
5880 5881 5883 5885 5887 5888 5889 5890 5891 5892 5892 5894 5895 5896 5897 5898 5899 5900 5901 5902 5903 5905 5906 5907 5908 5909 5910 5911 5912 5913 5914 5914 5914 5915 5915 5915 5915 5914 5914 5915 5915 5915 5914 5913 5912 5912 5911 5911 5910 5909 5908 5907 5906 5904 5902 5900 5899 5898 5896 5894 5893 5894 5894 5890 5888 5887 5886 5884 5883 5881 5879 5878 5877 5876 5875 5874 5872 5871 5869 5867 5865 5862 5860 5859 5856
5875 5877 5879 5882 5884 5885 5887 5888 5889 5890 5891 5892 5893 5894 5895 5896 5897 5898 5899 5900 5901 5902 5903 5904 5905 5906 5907 5908 5909 5910 5911 5911 5911 5911 5911 5911 5911 5911 5911 5911 5912 5911 5911 5910 5910 5909 5908 5907 5907 5905 5904 5902 5901 5899 5898 5897 5894 5892 5890 5888 5888 5888 5886 5883 5883 5883 5880 5879 5879 5875 5873 5872 5871 5870 5870 5869 5867 5865 5864 5863 5860 5857 5855 5852 5850
5871 5873 5875 5878 5880 5882 5883 5885 5887 5888 5889 5889 5890 5891 5892 5893 5895 5896 5896 5897 5898 5899 5900 5901 5902 5903 5904 5905 5906 5907 5907 5908 5908 5908 5908 5908 5907 5907 5907 5907 5907 5906 5906 5906 5906 5906 5905 5904 5902 5901 5899 5897 5895 5894 5893 5892 5890 5887 5885 5883 5882 5881 5878 5876 5877 5877 5874 5874 5874 5871 5868 5867 5865 5864 5864 5863 5862 5860 5858 5856 5854 5851 5849 5847 5844
5867 5869 5871 5874 5876 5879 5880 5882 5883 5885 5886 5887 5888 5888 5890 5891 5892 5893 5894 5894 5895 5896 5897 5898 5899 5900 5901 5902 5903 5904 5904 5905 5905 5905 5904 5904 5904 5903 5903 5903 5902 5901 5901 5902 5901 5901 5900 5899 5897 5896 5894 5893 5891 5889 5888 5887 5886 5883 5880 5878 5875 5872 5869 5868 5869 5870 5869 5869 5869 5866 5864 5862 5860 5858 5857 5856 5855 5854 5851 5849 5847 5845 5843 5842 5840
5864 5866 5868 5870 5872 5875 5876 5878 5880 5881 5883 5884 5885 5886 5886 5887 5888 5890 5890 5891 5892 5893 5894 5895 5896 5897 5898 5899 5899 5900 5901 5901 5901 5901 5901 5900 5900 5900 5899 5898 5897 5896 5895 5896 5896 5895 5894 5892 5891 5890 5889 5888 5887 5885 5883 5882 5880 5878 5876 5873 5867 5862 5860 5861 5864 5865 5865 5863 5861 5859 5858 5856 5853 5851 5850 5849 5848 5846 5844 5842 5841 5838 5836 5836 5834
5861 5863 5864 5866 5868 5870 5872 5874 5876 5877 5879 5881 5882 5883 5884 5884 5885 5886 5887 5888 5889 5890 5891 5891 5892 5893 5894 5895 5896 5896 5897 5897 5897 5897 5896 5896 5896 5896 5895 5894 5893 5891 5890 5891 5891 5890 5888 5886 5885 5885 5884 5883 5881 5880 5878 5877 5875 5872 5870 5866 5859 5854 5856 5858 5859 5858 5856 5854 5853 5852 5851 5849 5846 5844 5844 5842 5840 5837 5835 5834 5834 5832 5830 5829 5828
5858 5860 5861 5862 5864 5866 5868 5870 5871 5873 5875 5876 5878 5879 5880 5881 5882 5883 5883 5885 5885 5886 5887 5888 5888 5889 5890 5890 5891 5891 5891 5892 5891 5891 5891 5892 5892 5892 5891 5890 5889 5887 5885 5885 5886 5884 5882 5880 5879 5879 5878 5877 5876 5874 5873 5872 5869 5867 5864 5861 5854 5849 5851 5852 5849 5847 5846 5845 5844 5842 5841 5840 5838 5836 5835 5833 5830 5829 5828 5826 5826 5825 5823 5822 5820
5855 5857 5858 5860 5861 5863 5864 5866 5867 5869 5871 5872 5874 5875 5876 5877 5878 5879 5880 5880 5881 5882 5883 5884 5884 5885 5885 5886 5886 5886 5886 5885 5884 5885 5886 5887 5888 5887 5885 5885 5883 5882 5880 5880 5879 5877 5875 5874 5873 5873 5872 5871 5869 5867 5866 5865 5863 5861 5859 5856 5850 5845 5844 5843 5840 5837 5836 5835 5833 5831 5829 5828 5825 5823 5823 5822 5821 5819 5818 5817 5816 5816 5815 5814 5812
5851 5853 5855 5856 5858 5859 5861 5862 5864 5865 5866 5868 5869 5871 5872 5872 5873 5874 5875 5876 5877 5878 5879 5879 5879 5880 5880 5881 5881 5881 5881 5879 5879 5880 5881 5881 5881 5881 5880 5879 5877 5876 5875 5874 5872 5871 5870 5868 5867 5866 5865 5864 5862 5860 5859 5858 5857 5855 5853 5851 5846 5841 5838 5835 5831 5828 5827 5825 5823 5820 5815 5811 5809 5810 5813 5814 5812 5810 5808 5806 5805 5804 5805 5804 5802
5848 5850 5852 5853 5854 5856 5857 5858 5860 5861 5863 5864 5865 5866 5867 5868 5869 5869 5870 5871 5873 5873 5874 5874 5875 5875 5875 5876 5876 5876 5876 5875 5875 5875 5874 5874 5874 5874 5874 5873 5871 5870 5869 5868 5866 5864 5863 5862 5861 5859 5857 5856 5854 5853 5852 5851 5849 5848 5846 5844 5841 5836 5832 5828 5824 5822 5820 5818 5815 5809 5802 5797 5797 5799 5802 5804 5803 5802 5801 5799 5796 5795 5795 5794 5792
5845 5847 5848 5849 5850 5852 5853 5854 5856 5857 5859 5859 5860 5861 5862 5863 5864 5865 5866 5867 5868 5868 5869 5869 5870 5870 5870 5871 5871 5871 5870 5870 5869 5869 5868 5868 5868 5867 5867 5867 5866 5864 5863 5862 5860 5858 5857 5856 5854 5852 5850 5849 5847 5846 5844 5843 5841 5840 5838 5836 5833 5830 5826 5821 5817 5814 5813 5811 5806 5798 5790 5789 5791 5791 5791 5792 5793 5793 5792 5790 5788 5786 5785 5783 5782
5841 5843 5844 5846 5847 5848 5849 5850 5852 5853 5854 5855 5856 5857 5858 5858 5859 5860 5861 5862 5863 5863 5864 5864 5865 5865 5865 5865 5865 5865 5864 5864 5864 5863 5862 5862 5861 5861 5861 5860 5859 5858 5857 5855 5853 5852 5851 5849 5847 5845 5844 5842 5840 5838 5837 5835 5833 5831 5830 5828 5825 5822 5819 5815 5811 5807 5805 5803 5797 5787 5781 5783 5785 5784 5783 5784 5785 5784 5783 5780 5777 5776 5775 5774 5773
5837 5838 5840 5841 5843 5844 5845 5846 5847 5848 5849 5850 5851 5852 5853 5853 5854 5855 5856 5857 5857 5858 5858 5858 5859 5860 5860 5860 5860 5859 5859 5858 5858 5857 5856 5855 5855 5854 5853 5853 5852 5851 5850 5849 5847 5846 5844 5843 5841 5839 5837 5835 5833 5831 5830 5828 5825 5823 5821 5819 5817 5815 5812 5808 5805 5801 5796 5793 5788 5780 5775 5777 5777 5775 5775 5775 5774 5774 5773 5770 5767 5767 5766 5765 5765
5832 5833 5835 5837 5838 5839 5840 5841 5842 5843 5844 5844 5845 5847 5848 5848 5849 5850 5851 5852 5852 5853 5853 5853 5854 5854 5854 5854 5853 5853 5853 5852 5852 5851 5850 5849 5848 5847 5846 5845 5844 5843 5842 5841 5840 5839 5838 5836 5834 5832 5831 5829 5826 5824 5822 5820 5817 5815 5812 5810 5808 5807 5804 5801 5797 5793 5789 5785 5780 5774 5770 5768 5766 5764 5763 5762 5762 5762 5761 5758 5757 5757 5757 5757 5756
5826 5828 5830 5832 5833 5834 5835 5836 5837 5838 5839 5839 5840 5841 5842 5844 5844 5845 5846 5846 5847 5847 5848 5848 5848 5848 5848 5847 5847 5847 5846 5846 5845 5845 5844 5843 5842 5841 5839 5838 5837 5835 5834 5833 5832 5831 5829 5827 5826 5825 5823 5821 5819 5817 5814 5812 5809 5806 5804 5801 5799 5798 5796 5792 5787 5783 5780 5776 5772 5767 5764 5761 5758 5755 5752 5750 5749 5748 5747 5746 5747 5747 5747 5747 5747
5821 5823 5825 5826 5828 5829 5830 5831 5831 5832 5833 5833 5834 5835 5837 5838 5839 5840 5841 5841 5841 5842 5842 5842 5842 5842 5841 5841 5841 5841 5840 5839 5838 5838 5837 5836 5835 5834 5832 5831 5829 5828 5826 5825 5823 5822 5820 5818 5817 5816 5815 5813 5811 5808 5806 5803 5801 5798 5796 5794 5791 5789 5786 5783 5779 5775 5771 5767 5763 5760 5757 5753 5749 5746 5743 5741 5738 5735 5734 5735 5737 5737 5737 5738 5738
5816 5818 5819 5821 5822 5822 5823 5824 5825 5826 5827 5828 5828 5829 5831 5832 5833 5834 5835 5835 5835 5835 5835 5835 5835 5835 5835 5835 5835 5834 5833 5832 5832 5831 5830 5829 5828 5826 5825 5823 5822 5820 5819 5818 5816 5814 5812 5811 5810 5809 5807 5806 5804 5801 5798 5796 5794 5791 5788 5786 5784 5781 5778 5774 5771 5767 5763 5759 5755 5752 5749 5746 5742 5737 5733 5730 5728 5724 5722 5723 5724 5725 5725 5727 5729
5810 5812 5813 5814 5815 5816 5817 5818 5819 5820 5821 5822 5823 5823 5824 5825 5826 5827 5828 5830 5830 5829 5828 5828 5829 5829 5829 5829 5828 5828 5827 5826 5825 5824 5823 5822 5820 5819 5817 5816 5814 5813 5812 5810 5809 5807 5805 5804 5803 5801 5800 5798 5796 5794 5791 5789 5787 5785 5782 5779 5776 5774 5770 5767 5763 5760 5756 5751 5747 5744 5740 5737 5732 5727 5722 5720 5718 5714 5710 5711 5712 5713 5714 5716 5721
5804 5805 5806 5808 5809 5810 5811 5812 5813 5814 5815 5816 5817 5818 5818 5819 5820 5821 5822 5823 5823 5822 5822 5822 5823 5823 5822 5822 5822 5821 5820 5819 5818 5817 5816 5815 5813 5812 5810 5809 5807 5806 5804 5803 5801 5799 5798 5796 5795 5793 5792 5790 5788 5786 5784 5782 5780 5778 5776 5772 5769 5766 5763 5759 5756 5752 5748 5744 5741 5737 5734 5730 5724 5715 5710 5708 5706 5704 5702 5702 5703 5705 5706 5710 5714
5798 5798 5800 5802 5803 5804 5806 5807 5808 5809 5809 5810 5811 5811 5812 5813 5814 5814 5815 5816 5816 5816 5816 5816 5816 5816 5815 5815 5814 5814 5813 5812 5811 5810 5809 5807 5806 5804 5803 5802 5800 5798 5797 5795 5794 5792 5791 5789 5788 5786 5784 5782 5780 5779 5777 5775 5773 5771 5768 5765 5762 5759 5756 5753 5749 5746 5741 5737 5734 5730 5727 5725 5720 5712 5704 5698 5695 5694 5694 5693 5694 5699 5702 5705 5708
5791 5792 5794 5796 5797 5798 5800 5801 5802 5803 5804 5804 5805 5805 5806 5807 5807 5808 5809 5809 5809 5809 5809 5809 5809 5808 5808 5807 5807 5806 5805 5805 5804 5803 5801 5800 5799 5798 5796 5794 5792 5791 5790 5789 5787 5785 5784 5782 5780 5779 5777 5775 5773 5771 5769 5767 5765 5762 5760 5757 5755 5752 5750 5747 5743 5739 5735 5731 5727 5722 5718 5716 5714 5711 5706 5699 5693 5690 5689 5686 5688 5694 5696 5696 5699
5785 5787 5788 5789 5791 5792 5793 5794 5795 5797 5798 5798 5798 5798 5799 5800 5800 5801 5802 5803 5802 5802 5802 5802 5801 5801 5801 5800 5800 5799 5798 5797 5796 5795 5794 5793 5792 5791 5788 5786 5785 5783 5783 5781 5779 5778 5776 5775 5773 5771 5770 5768 5767 5764 5762 5759 5757 5755 5752 5749 5746 5744 5741 5739 5736 5732 5727 5723 5718 5715 5711 5707 5704 5702 5700 5695 5690 5688 5686 5683 5685 5689 5689 5687 5690
5779 5781 5781 5782 5784 5785 5786 5787 5788 5790 5791 5791 5791 5792 5792 5793 5793 5793 5794 5795 5795 5795 5795 5795 5794 5794 5793 5793 5792 5792 5791 5789 5788 5787 5786 5785 5784 5783 5781 5778 5777 5776 5775 5774 5772 5770 5769 5767 5766 5764 5763 5762 5760 5758 5755 5753 5751 5749 5746 5743 5740 5737 5734 5731 5728 5725 5721 5716 5713 5709 5706 5702 5697 5692 5689 5685 5680 5679 5680 5682 5684 5688 5689 5689 5692
5773 5774 5775 5776 5777 5778 5779 5780 5781 5782 5784 5784 5784 5784 5785 5786 5785 5785 5786 5787 5788 5788 5788 5788 5788 5787 5786 5785 5784 5784 5783 5782 5781 5780 5779 5778 5776 5775 5773 5771 5770 5769 5767 5766 5765 5763 5761 5760 5759 5758 5756 5755 5753 5751 5749 5747 5745 5743 5740 5738 5735 5732 5729 5725 5722 5719 5716 5712 5708 5704 5700 5695 5690 5685 5682 5680 5676 5675 5678 5682 5685 5687 5690 5692 5694
5765 5767 5768 5769 5770 5771 5772 5773 5773 5774 5775 5776 5776 5776 5777 5778 5778 5778 5778 5778 5779 5779 5779 5780 5780 5780 5778 5777 5777 5776 5775 5775 5774 5773 5772 5771 5769 5767 5765 5764 5763 5761 5759 5758 5757 5756 5755 5753 5752 5751 5750 5748 5747 5744 5742 5741 5739 5736 5734 5732 5729 5726 5723 5720 5717 5714 5711 5707 5702 5698 5694 5690 5686 5682 5680 5680 5679 5679 5681 5684 5685 5687 5689 5690 5691
5756 5759 5760 5761 5762 5763 5764 5765 5766 5766 5767 5768 5768 5768 5769 5770 5770 5771 5770 5770 5770 5771 5771 5771 5771 5771 5770 5769 5769 5768 5767 5766 5766 5764 5763 5763 5761 5759 5757 5757 5756 5754 5752 5751 5750 5749 5748 5746 5745 5744 5743 5741 5739 5738 5736 5734 5732 5730 5727 5726 5723 5720 5717 5714 5712 5709 5706 5702 5698 5694 5690 5688 5686 5684 5683 5683 5682 5682 5684 5685 5685 5686 5687 5687 5688
5748 5750 5752 5753 5755 5755 5756 5757 5758 5758 5759 5760 5760 5760 5761 5762 5763 5763 5763 5763 5763 5763 5763 5762 5762 5762 5761 5761 5761 5760 5758 5757 5757 5756 5755 5754 5752 5751 5750 5749 5748 5746 5745 5744 5743 5742 5740 5739 5737 5736 5735 5733 5732 5730 5729 5727 5725 5723 5721 5719 5717 5714 5712 5709 5708 5706 5703 5699 5696 5692 5690 5688 5687 5687 5687 5686 5685 5684 5684 5684 5684 5684 5684 5685 5685
5740 5741 5743 5745 5746 5747 5747 5748 5749 5750 5751 5751 5752 5752 5753 5753 5754 5754 5755 5755 5755 5755 5755 5754 5754 5754 5753 5753 5752 5751 5750 5749 5748 5748 5747 5746 5744 5743 5742 5742 5741 5739 5738 5737 5736 5735 5733 5732 5730 5729 5727 5726 5724 5723 5721 5720 5718 5716 5714 5712 5711 5710 5707 5706 5704 5703 5701 5698 5695 5692 5690 5689 5688 5687 5687 5686 5685 5684 5684 5683 5683 5683 5683 5683 5683
5731 5733 5735 5737 5737 5738 5739 5740 5741 5741 5742 5743 5743 5744 5744 5745 5745 5746 5746 5746 5746 5746 5746 5746 5746 5745 5745 5744 5743 5742 5741 5741 5740 5739 5738 5737 5736 5736 5735 5734 5734 5732 5730 5729 5728 5728 5726 5724 5723 5721 5720 5718 5717 5716 5714 5713 5711 5709 5707 5705 5705 5705 5703 5702 5701 5699 5697 5695 5693 5691 5690 5688 5687 5686 5685 5684 5684 5683 5683 5683 5683 5682 5682 5681 5681
5723 5725 5727 5728 5728 5729 5730 5731 5732 5733 5733 5734 5735 5735 5735 5736 5736 5736 5737 5737 5737 5737 5737 5737 5737 5736 5736 5735 5734 5734 5733 5732 5732 5731 5730 5729 5729 5728 5728 5727 5726 5725 5723 5722 5721 5720 5718 5717 5716 5715 5713 5711 5710 5709 5708 5706 5704 5702 5700 5699 5698 5699 5699 5698 5697 5696 5694 5693 5692 5690 5689 5688 5687 5686 5684 5683 5682 5682 5682 5682 5681 5680 5680 5679 5679
5715 5717 5718 5719 5720 5720 5721 5722 5723 5724 5724 5725 5726 5726 5726 5727 5727 5727 5727 5727 5728 5728 5728 5728 5728 5727 5727 5726 5726 5725 5724 5724 5723 5722 5722 5721 5721 5721 5720 5719 5718 5717 5715 5714 5713 5712 5711 5710 5709 5708 5706 5704 5703 5702 5701 5699 5698 5696 5694 5692 5692 5691 5692 5692 5692 5691 5690 5689 5689 5688 5687 5686 5685 5685 5684 5683 5681 5680 5680 5679 5678 5678 5677 5677 5677
5707 5708 5710 5711 5711 5712 5713 5714 5714 5715 5715 5716 5716 5717 5717 5718 5718 5718 5718 5718 5718 5719 5719 5719 5719 5719 5718 5718 5717 5716 5716 5715 5714 5714 5713 5712 5712 5712 5712 5712 5710 5709 5708 5707 5706 5705 5704 5702 5701 5700 5699 5698 5696 5695 5694 5692 5691 5690 5689 5687 5686 5686 5685 5685 5685 5685 5684 5684 5684 5684 5684 5683 5682 5681 5681 5681 5680 5679 5678 5677 5676 5675 5674 5674 5674
5698 5700 5701 5702 5703 5704 5704 5705 5705 5706 5707 5707 5708 5708 5709 5709 5709 5709 5709 5709 5710 5710 5710 5710 5710 5710 5709 5709 5708 5708 5707 5706 5705 5705 5704 5704 5703 5703 5704 5703 5703 5701 5700 5699 5699 5698 5697 5695 5694 5693 5692 5691 5690 5689 5688 5686 5685 5684 5683 5682 5681 5681 5680 5679 5679 5679 5679 5678 5678 5678 5679 5679 5678 5677 5676 5676 5676 5676 5675 5675 5674 5673 5672 5671 5671